Theta_e
349 349 349 349 350 350 349 349 349 349 349 349 349 349 348 348 348 348 348 347 346 351 351 348 347 345 346 346 345 345 345 345 345 344 344 343 343 342 342 342 342 342 341 339 338 336 337 338 338 339 340 343 342 345 344 343 342 340 340 340 340 339
349 350 350 349 349 351 350 349 349 350 347 347 349 349 349 348 347 348 347 349 350 350 348 347 347 344 347 346 345 345 345 344 344 344 344 343 342 341 341 342 342 341 338 337 336 339 338 336 336 338 339 341 344 344 344 343 342 340 340 341 340 340
349 349 348 350 349 350 351 350 347 346 350 346 348 348 347 347 347 349 349 348 350 349 346 345 347 346 345 345 346 345 344 344 343 343 343 344 343 342 342 343 342 340 338 335 342 339 337 336 337 335 339 343 344 344 344 343 342 341 339 340 339 338
343 347 346 347 347 345 346 343 346 346 346 348 348 347 347 347 347 347 347 346 346 346 346 346 345 346 344 345 346 344 344 344 343 343 343 343 343 343 342 341 341 340 339 341 341 339 335 335 336 339 342 343 342 344 343 343 340 341 341 338 337 337
347 347 346 345 341 343 345 345 347 345 346 346 347 347 347 347 347 346 346 346 345 345 345 345 348 348 344 344 346 346 345 342 342 343 342 342 341 342 342 341 341 340 340 340 339 340 338 335 336 337 339 342 343 343 343 343 342 340 341 341 340 336
344 345 345 344 343 344 344 345 345 345 345 347 346 346 346 346 346 345 346 346 345 344 344 344 348 347 345 345 344 344 344 343 342 342 343 340 340 340 339 339 340 339 339 339 340 340 339 337 335 335 335 340 342 343 342 340 341 341 342 341 340 337
343 345 344 346 344 345 345 345 346 345 345 344 346 344 344 346 345 345 346 345 344 344 344 344 345 346 344 344 342 342 341 342 342 341 342 339 340 339 339 338 338 339 339 339 338 338 337 337 337 334 335 335 339 341 342 341 341 341 341 340 340 338
342 343 344 344 345 346 345 346 344 344 346 345 344 343 345 344 344 345 345 346 346 345 343 340 344 344 343 344 344 342 341 342 342 341 341 341 338 338 338 339 340 339 337 337 335 337 337 336 336 337 335 335 336 339 341 340 341 342 341 341 340 340
342 342 343 345 343 344 344 343 344 344 343 345 344 344 345 344 343 344 345 346 345 344 344 344 343 343 344 344 344 343 342 341 342 342 341 341 339 340 339 339 339 337 338 337 337 338 337 336 337 338 336 335 335 336 339 341 341 340 341 341 340 340
341 341 343 344 343 343 343 341 342 343 344 346 344 344 344 343 343 343 344 345 346 345 344 343 343 343 342 342 343 343 343 342 341 341 340 341 342 341 340 339 339 338 335 337 336 338 337 335 333 335 335 335 335 335 338 339 340 339 340 341 341 341
342 344 343 341 342 342 343 342 343 343 343 345 345 344 344 343 342 343 344 344 344 344 343 344 343 341 342 341 343 343 342 341 341 341 342 342 342 341 341 341 340 338 337 337 337 337 336 335 334 333 335 333 334 336 337 339 338 339 339 340 340 342
342 344 344 341 342 341 341 342 343 342 342 345 344 343 342 341 342 342 341 342 341 341 341 342 342 341 339 340 340 341 340 341 341 341 341 341 342 341 341 340 340 342 342 340 338 337 338 335 335 333 334 333 335 336 336 338 338 339 339 340 340 341
342 344 342 341 340 340 341 341 341 341 343 344 343 342 340 338 337 337 333 336 337 337 336 337 335 333 334 336 337 338 339 340 339 339 340 341 341 342 342 341 340 341 340 339 338 337 335 337 336 336 336 334 336 334 335 336 338 338 338 339 339 340
343 341 342 341 342 340 341 341 342 341 342 343 342 341 340 334 336 334 333 333 335 333 333 334 332 332 333 333 332 331 334 336 337 337 338 339 339 340 340 340 338 338 336 337 336 337 336 335 335 335 336 335 337 337 336 334 337 338 339 338 339 340
342 342 341 341 340 340 341 340 341 341 341 341 341 340 339 332 334 335 334 334 332 332 333 333 333 334 332 332 331 333 335 337 337 338 339 339 339 339 341 339 337 336 336 337 337 335 335 334 334 334 336 337 335 335 337 337 337 337 336 339 340 339
342 342 342 341 342 342 340 340 341 341 341 341 340 339 339 336 334 334 335 335 335 334 332 332 333 333 332 332 334 336 337 336 336 339 339 339 340 339 340 339 339 338 335 335 335 335 335 334 333 332 334 336 337 337 337 337 337 336 337 337 336 339
342 341 340 340 340 339 339 339 340 340 340 339 338 338 337 337 337 334 334 335 335 336 334 333 333 333 333 333 335 336 337 336 337 338 339 338 339 339 340 338 338 338 337 335 333 332 333 332 331 332 333 334 335 336 336 337 336 337 336 337 336 336
342 341 340 338 338 337 336 337 338 338 338 336 335 335 335 336 335 335 334 333 334 337 337 334 334 333 332 334 335 336 335 335 335 337 337 338 338 337 338 339 337 337 336 335 333 330 329 330 331 332 332 333 334 335 335 336 336 336 337 335 335 336
340 339 337 336 336 335 335 335 335 334 334 333 333 333 334 335 334 335 334 334 335 336 336 335 335 333 331 334 334 334 334 335 335 337 335 335 335 335 336 338 337 333 336 336 334 332 330 331 332 331 330 330 332 334 335 335 334 334 335 335 335 335
339 337 336 335 334 334 334 333 331 331 332 333 333 332 333 334 335 335 336 336 336 335 335 335 335 334 334 334 335 335 334 334 335 335 335 334 333 334 335 335 335 334 333 332 333 331 331 330 332 330 328 329 330 332 333 332 333 332 332 334 335 335
337 336 335 334 334 333 332 331 332 334 334 333 332 332 332 333 334 336 336 335 335 335 335 335 334 334 334 334 334 334 333 332 333 333 334 333 333 333 335 335 334 334 333 331 329 331 330 332 328 325 327 327 328 330 331 330 332 332 331 332 333 334
336 336 337 336 335 335 335 334 334 333 333 332 332 332 332 333 334 333 334 334 335 335 335 335 335 334 334 332 332 332 332 331 332 332 333 333 333 332 331 332 332 330 331 331 328 329 329 330 325 324 322 322 325 328 329 330 329 329 330 331 333 334
336 337 337 337 336 335 335 334 335 333 333 330 331 333 333 333 333 331 332 334 335 337 335 335 335 334 334 333 333 333 332 332 332 332 332 332 332 331 332 332 333 330 327 330 328 328 329 330 325 325 326 322 319 320 324 327 329 328 328 332 333 330
334 336 336 336 336 336 334 332 334 333 332 333 330 329 330 329 328 327 327 328 331 334 336 335 334 333 334 333 333 333 333 333 332 332 331 331 330 330 331 332 332 332 331 325 325 323 328 328 327 324 318 321 320 319 316 319 323 326 328 328 329 328
333 333 334 335 334 333 330 330 328 329 329 327 328 328 328 326 327 327 326 328 329 332 336 335 335 334 334 333 333 334 333 332 332 333 332 331 330 330 331 332 332 331 331 329 325 325 326 328 328 331 326 318 315 315 315 320 321 322 327 326 327 328
332 331 332 334 333 332 331 329 328 326 325 325 324 325 324 323 323 325 324 324 325 329 334 336 335 335 334 334 334 333 332 332 332 331 332 331 331 330 329 331 332 331 329 332 329 326 325 327 328 329 330 331 329 321 317 321 320 314 325 327 327 324
330 330 331 332 333 332 332 332 332 332 331 329 325 324 325 326 326 323 323 324 324 327 330 335 335 335 335 335 334 333 333 333 332 331 331 331 330 331 330 330 332 331 332 330 329 326 326 324 326 327 328 330 328 328 328 321 317 319 315 316 319 319
329 329 330 331 332 333 332 332 332 331 330 329 328 324 325 324 323 322 322 322 324 325 327 331 333 333 334 334 334 333 332 332 331 331 331 330 330 331 331 331 332 333 331 331 330 326 326 327 326 323 327 326 327 328 328 328 325 321 317 310 309 314
328 328 328 330 331 331 332 332 331 330 327 326 326 325 324 321 320 322 322 322 324 324 326 327 328 330 330 331 333 333 333 332 331 331 331 330 331 331 331 331 330 330 330 330 331 329 328 326 328 325 325 325 326 326 326 327 326 324 318 314 311 310
327 326 327 329 330 329 330 330 329 329 327 324 325 323 322 319 319 321 321 322 323 325 325 326 326 326 328 328 330 332 333 333 331 331 330 330 330 330 330 330 330 331 330 330 330 330 329 329 329 329 329 328 326 324 325 324 324 321 320 319 313 310
326 325 325 327 328 328 329 329 329 328 327 325 325 323 320 319 318 320 320 321 323 323 325 325 326 326 327 327 329 330 330 330 331 330 328 328 330 329 329 329 329 329 330 329 328 327 326 327 327 326 326 327 326 325 323 321 320 321 318 315 312 311
325 325 325 326 327 326 326 326 327 327 327 327 326 324 322 320 319 319 320 319 320 322 323 323 325 326 326 326 327 327 327 327 326 327 327 328 328 327 326 325 326 326 325 326 328 328 327 326 327 326 326 325 322 323 323 321 320 321 319 316 315 311
324 324 324 324 324 324 324 324 324 325 326 327 327 326 324 322 321 320 320 319 320 321 322 323 324 325 324 324 325 325 326 325 325 325 324 324 324 323 323 322 322 323 324 325 326 326 324 325 325 322 318 320 318 318 317 319 319 317 317 316 314 310
325 323 322 321 321 322 322 322 324 325 326 325 325 325 324 321 321 322 321 321 321 321 322 324 323 323 322 322 323 324 324 323 322 322 322 322 321 320 322 320 322 322 322 321 322 322 320 321 321 321 321 318 318 317 317 319 318 316 314 313 310 310
321 319 319 320 321 321 322 323 323 324 326 325 324 324 323 323 321 320 320 321 321 322 322 321 321 321 320 322 322 323 323 322 321 321 321 321 320 320 321 320 320 320 319 319 320 320 319 319 318 318 320 318 318 317 316 316 315 313 312 313 313 312
317 319 321 321 321 324 325 324 323 324 324 324 324 323 321 319 320 322 322 322 321 322 321 320 320 321 320 321 322 322 321 320 320 320 320 319 319 319 320 320 318 319 316 317 319 319 318 318 318 319 318 318 316 314 316 315 314 315 313 314 313 314
320 320 320 319 320 325 326 325 322 324 323 322 322 323 322 321 322 322 322 321 320 320 322 322 321 322 321 321 321 322 321 320 320 320 319 318 318 318 319 319 318 318 317 318 318 317 318 317 317 317 317 318 315 314 314 317 315 316 316 317 316 315
Wind_Speed
9 11 9 8 7 9 10 13 12 13 12 12 11 12 11 10 9 10 9 8 7 5 5 6 7 6 8 7 7 8 8 8 8 8 8 8 8 8 8 9 9 9 9 7 7 7 6 6 6 5 3 3 8 4 3 2 3 2 2 3 3 3
8 9 8 7 7 6 8 9 9 9 9 10 11 11 9 7 8 7 9 6 5 4 5 5 5 6 5 7 7 7 7 8 8 7 7 7 7 6 7 7 9 10 8 6 3 3 3 4 5 4 3 5 5 3 3 3 2 2 2 2 2 5
7 7 9 6 6 5 4 5 7 8 6 9 9 9 7 7 6 6 5 5 4 4 4 4 5 5 5 5 6 7 7 7 7 7 7 7 7 6 6 7 9 9 7 4 1 3 2 2 2 3 4 4 3 3 3 3 3 2 2 2 2 5
8 9 6 5 5 4 5 5 5 6 5 6 7 6 7 6 6 6 5 5 5 5 5 4 6 9 8 6 6 7 7 7 8 8 7 5 6 6 7 8 8 5 3 1 2 1 2 2 2 2 2 3 3 4 4 4 3 2 2 3 2 5
7 7 8 6 7 7 7 6 6 5 6 5 5 6 5 6 6 7 6 5 5 5 5 5 5 5 4 5 4 4 4 4 4 5 4 3 2 3 3 3 3 2 2 1 1 1 1 2 1 2 3 3 3 4 4 4 2 2 2 2 3 3
6 7 7 7 7 7 8 6 6 5 6 5 5 5 5 5 5 6 5 6 6 6 5 5 5 5 4 4 4 3 2 2 3 3 4 3 3 2 2 2 2 1 1 1 1 1 1 1 1 1 2 3 3 3 4 3 3 2 1 2 4 3
7 6 8 8 7 7 6 6 6 7 6 6 5 6 5 4 5 6 6 6 6 6 5 5 5 4 4 4 4 3 3 3 2 2 2 3 3 3 2 2 2 1 1 1 1 2 1 1 1 1 2 3 2 3 3 3 3 2 2 2 4 4
9 8 7 6 7 5 5 6 6 6 6 6 6 6 5 4 5 5 6 5 6 6 6 6 5 5 5 4 4 4 3 3 2 1 2 1 3 3 3 3 2 1 1 1 2 3 2 1 1 0 2 2 2 2 2 2 2 2 2 2 3 5
9 9 8 7 7 6 6 6 6 6 7 7 6 4 4 5 5 5 5 5 6 6 5 5 5 5 5 4 4 4 4 3 3 2 2 2 1 2 2 2 2 2 2 2 3 3 2 2 1 1 2 3 2 2 2 2 2 2 2 2 2 4
8 7 8 7 7 7 7 7 8 7 6 6 5 4 5 4 5 5 5 5 5 5 5 5 5 4 5 4 5 4 4 3 3 3 3 2 2 2 2 3 3 2 3 3 3 3 2 2 2 2 1 1 2 2 2 2 2 2 2 2 2 4
9 9 7 8 8 8 7 7 6 5 5 4 3 4 4 4 5 4 4 4 4 4 4 4 5 5 3 4 3 3 4 4 4 4 3 3 4 4 3 3 3 3 3 3 3 3 2 3 2 2 1 1 1 1 2 2 2 2 2 2 2 2
9 9 8 9 8 8 7 5 5 5 5 3 3 3 3 4 4 3 2 3 3 4 4 4 2 1 1 1 3 4 4 4 3 3 3 3 3 3 2 2 2 2 2 3 3 3 3 3 3 2 2 2 1 1 2 2 2 2 2 2 1 1
8 9 10 9 7 6 5 5 5 5 4 3 3 3 4 3 2 3 2 4 1 2 1 1 2 3 2 4 2 4 2 2 2 3 2 2 2 1 0 1 2 1 2 3 3 4 4 3 3 2 2 2 1 1 1 1 1 1 1 1 2 2
8 10 10 8 7 6 6 6 5 4 4 3 3 3 2 3 1 2 4 6 3 2 4 3 3 2 5 4 7 2 3 3 2 2 2 2 2 2 2 2 1 2 2 3 4 4 3 3 3 3 3 3 2 2 1 1 1 1 1 1 1 1
9 10 9 8 8 6 6 5 5 5 4 4 3 3 3 4 2 2 4 2 4 3 2 2 5 1 4 6 5 4 6 3 2 2 2 2 3 4 3 3 3 2 3 4 5 5 4 3 1 2 3 3 3 2 2 2 2 2 2 1 1 2
10 10 8 7 7 6 6 6 5 5 4 5 4 4 2 4 3 3 3 4 6 5 4 4 1 1 4 6 4 4 4 3 3 2 2 3 3 3 3 4 3 3 3 4 4 5 3 3 1 1 3 3 3 2 2 2 1 1 1 2 1 1
11 10 9 9 7 6 6 5 5 5 4 3 2 1 1 1 3 4 4 4 2 3 4 4 4 5 6 6 4 4 3 3 3 3 3 3 3 2 2 3 3 2 2 4 5 5 4 2 1 3 4 5 4 4 3 3 2 1 1 2 1 0
9 9 7 7 7 6 5 5 4 3 2 2 2 2 1 1 1 2 2 2 3 3 2 3 3 2 4 4 3 2 2 2 3 2 3 2 2 2 2 2 3 3 2 4 5 6 4 3 2 2 4 4 4 3 3 3 2 2 2 3 1 2
9 8 7 7 7 6 6 5 4 3 3 3 3 3 2 2 1 2 2 2 2 1 1 2 3 5 4 4 3 2 2 3 3 3 3 2 3 3 3 3 4 4 3 2 5 6 6 3 3 3 3 3 3 3 2 1 2 1 1 1 1 2
8 8 7 7 6 6 5 5 4 3 3 3 3 3 2 1 1 0 1 2 1 1 1 2 2 2 2 3 3 1 1 2 2 3 4 4 4 3 4 4 5 5 6 5 6 6 5 4 3 4 4 3 2 3 4 2 1 1 1 0 1 2
8 8 7 7 7 7 6 5 4 5 3 3 3 4 3 2 1 1 1 1 1 1 1 2 2 3 2 1 1 1 2 1 1 3 3 3 4 4 4 4 4 4 5 6 6 7 7 5 6 5 3 3 2 3 3 2 2 2 3 2 1 0
8 8 8 8 7 7 7 6 5 5 3 4 4 4 4 3 2 1 1 1 1 2 2 2 2 1 2 2 1 2 2 3 3 2 2 3 4 5 5 5 5 5 3 6 6 8 7 6 5 4 5 4 2 2 3 2 2 4 4 3 3 3
8 9 8 8 8 6 5 3 2 4 4 4 2 2 3 4 3 2 1 1 2 1 2 2 3 2 2 1 1 1 2 2 2 1 1 2 3 4 4 5 6 6 7 4 6 4 7 3 4 5 3 4 4 3 1 1 3 4 4 3 3 4
7 7 7 8 6 5 6 4 4 5 5 4 5 4 5 4 4 3 2 1 0 1 3 3 3 4 3 3 2 1 1 1 1 1 1 1 2 3 3 4 4 6 7 8 5 2 2 4 3 5 5 2 3 2 3 2 1 4 2 3 4 4
7 7 6 7 7 7 8 7 6 7 7 8 6 5 5 4 3 3 2 1 1 1 3 4 3 3 4 4 3 2 2 3 2 2 1 1 2 2 2 3 4 5 6 6 7 4 1 4 3 3 2 5 4 3 1 4 3 4 3 3 4 4
6 6 7 8 9 8 8 9 9 8 8 6 6 6 6 6 5 3 2 1 1 1 2 4 3 3 3 3 3 3 3 3 2 2 2 2 1 2 2 3 3 4 5 3 6 6 5 4 4 2 2 2 1 2 5 5 5 5 4 5 5 6
8 7 7 8 10 8 8 7 8 7 7 7 7 4 2 3 4 3 2 2 2 1 2 3 3 3 3 3 3 3 3 3 3 2 2 2 3 4 3 2 3 3 3 4 5 4 5 6 5 3 1 1 1 1 3 6 3 7 7 5 6 5
7 7 7 8 9 7 7 6 5 4 4 5 5 6 5 4 4 3 3 2 2 2 2 2 3 3 3 3 3 4 3 3 3 2 3 2 3 2 2 2 3 1 3 3 5 4 5 6 5 5 4 3 3 3 3 2 4 4 6 8 7 7
6 6 6 7 8 6 4 6 5 5 5 4 6 6 5 4 4 3 5 2 2 3 3 2 2 3 3 3 3 3 4 3 3 2 2 2 3 2 3 3 3 3 3 3 3 3 4 5 5 7 6 6 5 4 3 2 1 2 6 8 7 8
5 4 5 6 5 6 5 5 5 5 8 6 5 5 4 5 4 3 4 3 2 2 3 3 2 2 2 3 2 2 2 3 3 3 3 2 3 2 2 2 2 2 3 3 2 3 3 4 4 5 4 5 5 5 4 4 3 4 4 4 7 8
6 4 5 6 6 5 4 2 3 6 9 9 7 7 7 5 4 4 4 3 2 2 2 3 2 2 3 3 3 2 2 2 2 2 3 3 2 2 3 3 3 3 3 3 3 5 5 5 5 5 4 4 5 5 5 6 6 5 5 6 8 7
6 5 5 5 5 5 4 4 4 6 8 7 8 7 7 8 6 6 4 3 2 3 3 3 2 2 2 2 2 3 3 3 3 2 2 2 2 2 3 3 3 3 3 4 4 5 6 6 6 5 4 3 3 3 4 5 4 4 5 6 6 8
7 5 5 7 7 7 6 5 3 4 4 4 4 5 6 6 5 5 4 4 3 4 4 4 2 3 3 3 2 3 2 2 3 2 2 2 2 2 3 3 3 4 4 5 4 5 5 6 6 6 5 4 4 5 5 4 3 4 4 4 6 7
8 9 11 11 10 10 8 5 2 3 4 5 5 5 5 6 5 4 4 4 3 4 4 4 3 2 2 2 3 3 3 3 3 3 2 3 2 2 2 3 4 4 5 4 4 6 7 6 6 6 5 5 5 5 4 3 4 4 5 5 6 8
14 15 13 11 10 10 8 8 8 6 4 2 2 2 3 6 7 5 3 3 2 2 4 4 3 2 2 3 4 3 4 4 4 3 3 3 2 2 2 3 4 4 4 3 5 5 5 6 5 5 6 6 5 5 4 4 4 4 3 3 5 7
17 13 11 10 11 10 10 10 9 8 7 6 4 4 4 4 4 5 5 4 3 2 4 5 3 3 3 3 4 4 4 5 4 4 3 3 2 2 2 3 4 4 4 2 4 6 5 6 6 7 7 6 6 6 5 5 5 4 5 4 4 4
14 9 13 14 12 7 4 3 7 8 7 8 7 5 6 6 6 5 4 3 3 3 5 5 5 3 4 4 4 3 4 5 4 4 4 4 4 3 3 3 3 4 4 3 4 5 4 6 6 6 6 7 7 7 6 5 5 5 4 4 4 3
Wind_Direction
165 163 158 152 149 158 163 152 146 144 142 140 131 130 130 132 133 132 133 120 123 135 134 137 146 133 131 121 113 120 118 114 111 111 112 111 111 113 107 98 96 94 92 89 85 75 56 32 28 15 27 146 150 170 144 142 152 153 158 134 156 120
149 151 148 157 158 163 163 153 151 148 149 141 138 138 143 147 147 141 125 138 136 139 146 145 134 129 124 128 129 121 120 117 115 114 110 112 111 115 117 111 105 90 81 78 78 79 75 71 50 30 65 100 173 159 146 155 175 166 150 146 161 102
143 152 152 152 152 149 136 139 158 152 149 145 148 147 148 151 151 136 142 142 142 147 147 141 137 126 125 113 120 126 123 124 122 119 120 115 115 120 123 117 101 92 84 78 106 70 68 62 83 95 125 158 157 160 150 159 179 179 168 118 176 97
158 157 146 143 129 122 143 158 165 150 145 154 154 150 152 153 151 143 147 153 157 155 150 154 133 138 137 144 134 136 126 126 124 113 113 129 131 122 114 102 90 93 112 74 62 72 83 77 72 86 97 140 149 146 166 174 194 181 171 149 145 111
150 144 145 147 144 165 155 162 153 154 158 160 152 153 157 155 156 155 158 163 166 154 160 157 146 155 153 144 143 145 151 144 130 118 111 108 134 124 160 139 126 109 66 51 54 46 42 86 62 81 91 113 139 156 173 181 187 188 170 147 125 135
141 151 148 153 157 156 154 159 153 164 162 157 159 158 161 161 159 166 169 166 163 163 166 156 159 155 149 150 152 145 134 138 142 131 146 132 123 120 111 116 107 106 87 54 34 31 31 19 88 71 86 103 139 165 180 177 173 181 160 157 131 154
147 156 162 158 154 156 159 160 163 169 163 171 168 164 163 162 167 173 175 171 169 171 171 169 156 157 155 161 153 154 151 159 158 153 143 135 127 128 120 106 98 90 125 149 95 78 57 50 3 92 98 105 125 166 182 181 178 180 165 162 129 155
155 156 156 152 153 151 172 165 167 171 177 176 178 177 168 163 168 179 184 180 181 178 178 174 166 166 165 166 158 164 160 165 167 159 127 115 131 125 128 114 115 132 144 102 101 87 73 52 124 189 143 131 134 153 186 190 189 183 170 154 147 154
154 160 155 161 171 171 173 172 178 185 189 188 185 178 169 169 175 189 195 193 190 187 180 177 178 174 169 169 158 166 174 178 172 162 158 141 122 111 110 105 99 99 102 106 100 82 55 55 96 138 158 143 144 140 167 188 187 179 187 147 175 135
162 163 166 173 176 176 175 185 190 193 193 190 187 181 170 181 190 192 196 202 198 193 185 182 180 173 176 168 168 173 180 182 185 172 176 157 155 155 131 121 120 128 132 126 109 79 48 84 99 93 93 121 147 151 158 187 190 188 174 178 167 140
169 170 169 176 180 185 188 192 191 189 199 201 160 175 177 192 202 201 193 205 207 188 186 187 182 180 174 170 179 187 197 185 188 179 181 175 174 172 162 139 136 146 145 135 113 92 98 100 103 107 77 87 112 144 162 165 189 178 180 169 176 175
172 169 176 186 186 187 189 195 194 200 206 186 149 155 182 207 205 193 171 199 189 189 192 194 134 59 331 182 190 218 206 198 191 180 194 192 186 182 168 135 131 125 114 121 113 95 104 119 107 105 101 92 104 151 145 155 183 163 175 158 159 156
175 177 185 192 188 182 190 198 203 209 203 174 184 170 181 173 172 80 339 260 288 304 43 50 132 163 83 311 289 229 197 208 194 184 202 233 234 199 174 147 124 110 128 123 113 110 113 112 118 106 96 90 113 98 103 149 149 171 173 158 175 159
181 189 192 192 187 186 194 200 205 209 210 192 203 200 172 93 182 104 249 261 266 277 289 279 254 148 106 202 230 220 213 208 206 173 160 186 198 180 165 157 120 129 89 114 96 90 113 116 126 138 118 110 103 102 139 154 158 150 162 192 171 189
183 190 188 193 193 193 192 196 200 205 204 205 194 212 136 136 189 191 196 184 266 247 234 283 256 211 161 225 230 214 217 202 184 165 165 159 164 160 160 155 150 138 106 92 90 74 74 101 92 110 120 123 116 128 143 141 144 177 174 159 206 181
182 185 188 190 196 188 182 191 201 206 211 209 212 210 173 136 161 175 214 191 182 216 214 234 260 22 232 218 215 207 189 189 178 167 149 136 160 155 149 146 140 140 132 110 107 98 96 86 76 60 54 82 100 120 138 128 111 152 159 203 199 164
181 179 180 186 175 169 163 170 184 205 203 167 150 127 116 128 154 165 213 247 245 213 192 230 189 175 219 219 212 204 207 180 176 155 134 142 148 151 162 143 125 115 135 132 111 100 108 137 102 68 93 94 73 57 54 57 70 101 125 79 54 38
178 172 165 160 159 150 148 147 156 159 143 119 95 104 109 181 157 160 169 204 209 207 175 197 194 190 243 224 218 215 178 170 179 174 151 156 138 150 167 152 121 104 128 141 134 134 142 169 140 120 104 77 70 62 51 60 72 46 56 88 67 47
170 160 148 148 142 132 130 123 110 113 117 122 122 118 137 130 131 143 157 177 212 232 201 187 185 167 232 253 233 216 177 159 173 173 173 169 163 155 155 162 138 133 112 108 127 143 156 168 129 95 93 33 34 47 46 45 286 318 26 37 53 54
161 153 146 143 144 142 143 137 134 131 148 141 129 124 118 99 125 163 147 172 193 289 1 32 60 105 198 247 276 219 170 165 183 191 192 186 170 165 164 159 155 156 145 127 129 143 152 163 99 93 54 42 40 40 39 42 315 312 322 35 13 32
158 155 155 157 161 158 155 142 154 179 172 156 147 133 124 130 148 133 161 167 158 166 130 116 118 188 175 223 235 181 177 149 242 216 203 172 155 148 151 153 147 158 157 144 135 146 163 165 142 122 111 111 78 49 51 54 29 14 26 21 58 113
161 168 173 175 171 169 174 175 170 171 156 144 147 147 137 133 136 133 171 176 189 173 146 124 128 139 138 200 231 179 184 166 189 206 153 143 137 133 149 158 155 138 152 152 143 153 156 160 162 170 156 141 103 70 57 49 41 32 6 21 34 70
172 179 181 177 176 169 162 130 147 141 145 123 82 74 100 104 108 109 66 184 182 197 151 126 126 127 150 189 208 169 143 137 140 137 159 150 147 154 164 165 168 152 148 126 109 115 155 239 164 177 130 155 151 180 85 91 91 42 15 18 32 61
164 173 171 177 167 114 114 105 94 115 103 102 126 113 102 104 106 114 107 25 272 200 156 130 123 134 135 141 137 113 119 125 131 147 170 160 152 159 161 160 160 156 157 151 141 93 130 180 185 149 165 185 127 224 171 133 67 68 38 61 66 71
166 171 164 159 147 133 124 116 114 103 100 95 98 117 121 113 116 118 126 124 70 145 159 139 127 120 125 131 126 106 99 104 123 146 160 169 165 146 161 183 177 161 174 166 145 125 143 138 154 295 166 144 152 197 173 134 147 77 28 66 55 56
161 161 162 162 154 153 154 148 147 141 141 137 136 151 148 144 145 141 113 63 56 66 129 130 130 132 129 135 135 135 131 128 130 147 160 158 147 134 159 172 177 179 162 139 136 141 154 134 157 155 342 332 323 173 162 162 196 134 89 58 57 53
165 166 165 161 161 161 161 165 164 162 154 149 142 126 104 113 121 108 106 95 84 78 104 133 137 142 143 144 144 141 139 136 131 148 165 177 172 187 193 194 169 178 162 151 172 155 167 137 130 104 115 135 89 349 92 151 163 132 121 79 56 56
166 166 166 159 162 169 163 162 152 127 117 129 128 129 134 119 102 115 118 115 119 113 112 116 137 137 145 154 153 149 148 144 146 139 161 152 150 161 152 149 174 161 152 162 167 174 177 159 165 135 141 123 92 100 113 47 146 171 137 132 108 86
162 158 154 155 154 166 157 154 153 136 115 91 99 105 111 111 115 122 112 101 108 110 108 96 98 118 129 142 157 153 157 156 145 134 138 134 140 146 141 153 169 183 180 154 167 158 171 174 166 145 147 140 138 121 101 89 132 214 159 139 130 118
145 135 128 144 149 148 153 152 145 141 118 110 105 110 117 117 114 116 105 99 111 113 107 107 93 84 99 110 119 136 145 133 134 128 127 121 121 123 134 141 168 154 159 161 154 168 174 161 143 143 151 147 145 141 148 150 159 154 142 150 146 146
133 121 134 144 153 141 135 129 125 121 118 129 139 138 133 128 123 123 120 118 118 106 93 96 97 83 69 79 88 77 77 89 90 105 121 137 143 129 132 139 143 136 140 144 140 135 129 135 134 142 149 176 165 175 177 171 165 160 150 138 133 131
127 133 136 125 108 91 100 94 103 127 136 148 152 154 148 143 143 132 129 132 136 127 110 101 101 105 83 71 79 76 70 79 83 94 109 110 117 122 126 131 135 127 113 107 118 127 127 136 139 133 130 123 100 110 116 121 122 140 143 143 143 136
135 126 97 78 74 70 63 61 71 110 132 145 147 142 141 133 135 135 138 146 157 136 127 127 126 116 92 89 95 104 101 97 102 88 89 103 102 104 114 117 113 114 118 124 122 119 115 114 122 123 115 103 106 101 94 85 108 112 106 126 134 129
115 81 78 78 79 80 77 81 110 154 154 158 156 157 148 134 125 129 148 161 169 148 138 133 133 109 94 97 88 79 84 74 65 78 75 76 83 90 103 116 116 108 107 101 107 104 105 102 95 102 113 111 99 98 94 94 104 118 130 144 144 139
84 85 94 106 117 123 138 163 173 170 143 119 166 157 142 133 141 152 173 163 165 148 127 125 121 107 100 88 90 95 89 90 78 69 70 81 81 85 67 89 87 85 87 93 104 104 104 109 104 104 96 101 103 101 105 112 115 111 125 125 137 142
102 110 118 142 154 159 175 185 152 146 164 166 166 155 136 123 141 156 157 162 156 149 121 126 121 122 97 95 88 91 93 84 83 76 68 68 73 84 68 89 96 94 97 80 100 98 102 101 103 105 106 111 111 105 105 103 99 90 87 90 116 148
107 142 175 175 162 143 173 150 157 172 158 158 177 165 141 157 155 148 138 132 152 147 133 135 128 126 118 105 98 94 97 91 82 81 78 67 61 55 48 71 86 98 100 98 102 105 108 112 114 117 115 112 110 113 106 99 98 97 93 87 89 104